Year,Month,Day,Hour,Minute,Value (Times are PST for insolation in W/m^2)
2012,04,19,00,00,0.00
2012,04,19,00,01,0.00
2012,04,19,00,02,0.00
2012,04,19,00,03,0.00
2012,04,19,00,04,0.00
2012,04,19,00,05,0.00
2012,04,19,00,06,0.00
2012,04,19,00,07,0.00
2012,04,19,00,08,0.00
2012,04,19,00,09,0.00
2012,04,19,00,10,0.00
2012,04,19,00,11,0.00
2012,04,19,00,12,0.00
2012,04,19,00,13,0.00
2012,04,19,00,14,0.00
2012,04,19,00,15,0.00
2012,04,19,00,16,0.00
2012,04,19,00,17,0.00
2012,04,19,00,18,0.00
2012,04,19,00,19,0.00
2012,04,19,00,20,0.00
2012,04,19,00,21,0.00
2012,04,19,00,22,0.00
2012,04,19,00,23,0.00
2012,04,19,00,24,0.00
2012,04,19,00,25,0.00
2012,04,19,00,26,0.00
2012,04,19,00,27,0.00
2012,04,19,00,28,0.00
2012,04,19,00,29,0.00
2012,04,19,00,30,0.00
2012,04,19,00,31,0.00
2012,04,19,00,32,0.00
2012,04,19,00,33,0.00
2012,04,19,00,34,0.00
2012,04,19,00,35,0.00
2012,04,19,00,36,0.00
2012,04,19,00,37,0.00
2012,04,19,00,38,0.00
2012,04,19,00,39,0.00
2012,04,19,00,40,0.00
2012,04,19,00,41,0.00
2012,04,19,00,42,0.00
2012,04,19,00,43,0.00
2012,04,19,00,44,0.00
2012,04,19,00,45,0.00
2012,04,19,00,46,0.00
2012,04,19,00,47,0.00
2012,04,19,00,48,0.00
2012,04,19,00,49,0.00
2012,04,19,00,50,0.00
2012,04,19,00,51,0.00
2012,04,19,00,52,0.00
2012,04,19,00,53,0.00
2012,04,19,00,54,0.00
2012,04,19,00,55,0.00
2012,04,19,00,56,0.00
2012,04,19,00,57,0.00
2012,04,19,00,58,0.00
2012,04,19,00,59,0.00
2012,04,19,01,00,0.00
2012,04,19,01,01,0.00
2012,04,19,01,02,0.00
2012,04,19,01,03,0.00
2012,04,19,01,04,0.00
2012,04,19,01,05,0.00
2012,04,19,01,06,0.00
2012,04,19,01,07,0.00
2012,04,19,01,08,0.00
2012,04,19,01,09,0.00
2012,04,19,01,10,0.00
2012,04,19,01,11,0.00
2012,04,19,01,12,0.00
2012,04,19,01,13,0.00
2012,04,19,01,14,0.00
2012,04,19,01,15,0.00
2012,04,19,01,16,0.00
2012,04,19,01,17,0.00
2012,04,19,01,18,0.00
2012,04,19,01,19,0.00
2012,04,19,01,20,0.00
2012,04,19,01,21,0.00
2012,04,19,01,22,0.00
2012,04,19,01,23,0.00
2012,04,19,01,24,0.00
2012,04,19,01,25,0.00
2012,04,19,01,26,0.00
2012,04,19,01,27,0.00
2012,04,19,01,28,0.00
2012,04,19,01,29,0.00
2012,04,19,01,30,0.00
2012,04,19,01,31,0.00
2012,04,19,01,32,0.00
2012,04,19,01,33,0.00
2012,04,19,01,34,0.00
2012,04,19,01,35,0.00
2012,04,19,01,36,0.00
2012,04,19,01,37,0.00
2012,04,19,01,38,0.00
2012,04,19,01,39,0.00
2012,04,19,01,40,0.00
2012,04,19,01,41,0.00
2012,04,19,01,42,0.00
2012,04,19,01,43,0.00
2012,04,19,01,44,0.00
2012,04,19,01,45,0.00
2012,04,19,01,46,0.00
2012,04,19,01,47,0.00
2012,04,19,01,48,0.00
2012,04,19,01,49,0.00
2012,04,19,01,50,0.00
2012,04,19,01,51,0.00
2012,04,19,01,52,0.00
2012,04,19,01,53,0.00
2012,04,19,01,54,0.00
2012,04,19,01,55,0.00
2012,04,19,01,56,0.00
2012,04,19,01,57,0.00
2012,04,19,01,58,0.00
2012,04,19,01,59,0.00
2012,04,19,02,00,0.00
2012,04,19,02,01,0.00
2012,04,19,02,02,0.00
2012,04,19,02,03,0.00
2012,04,19,02,04,0.00
2012,04,19,02,05,0.00
2012,04,19,02,06,0.00
2012,04,19,02,07,0.00
2012,04,19,02,08,0.00
2012,04,19,02,09,0.00
2012,04,19,02,10,0.00
2012,04,19,02,11,0.00
2012,04,19,02,12,0.00
2012,04,19,02,13,0.00
2012,04,19,02,14,0.00
2012,04,19,02,15,0.00
2012,04,19,02,16,0.00
2012,04,19,02,17,0.00
2012,04,19,02,18,0.00
2012,04,19,02,19,0.00
2012,04,19,02,20,0.00
2012,04,19,02,21,0.00
2012,04,19,02,22,0.00
2012,04,19,02,23,0.00
2012,04,19,02,24,0.00
2012,04,19,02,25,0.00
2012,04,19,02,26,0.00
2012,04,19,02,27,0.00
2012,04,19,02,28,0.00
2012,04,19,02,29,0.00
2012,04,19,02,30,0.00
2012,04,19,02,31,0.00
2012,04,19,02,32,0.00
2012,04,19,02,33,0.00
2012,04,19,02,34,0.00
2012,04,19,02,35,0.00
2012,04,19,02,36,0.00
2012,04,19,02,37,0.00
2012,04,19,02,38,0.00
2012,04,19,02,39,0.00
2012,04,19,02,40,0.00
2012,04,19,02,41,0.00
2012,04,19,02,42,0.00
2012,04,19,02,43,0.00
2012,04,19,02,44,0.00
2012,04,19,02,45,0.00
2012,04,19,02,46,0.00
2012,04,19,02,47,0.00
2012,04,19,02,48,0.00
2012,04,19,02,49,0.00
2012,04,19,02,50,0.00
2012,04,19,02,51,0.00
2012,04,19,02,52,0.00
2012,04,19,02,53,0.00
2012,04,19,02,54,0.00
2012,04,19,02,55,0.00
2012,04,19,02,56,0.00
2012,04,19,02,57,0.00
2012,04,19,02,58,0.00
2012,04,19,02,59,0.00
2012,04,19,03,00,0.00
2012,04,19,03,01,0.00
2012,04,19,03,02,0.00
2012,04,19,03,03,0.00
2012,04,19,03,04,0.00
2012,04,19,03,05,0.00
2012,04,19,03,06,0.00
2012,04,19,03,07,0.00
2012,04,19,03,08,0.00
2012,04,19,03,09,0.00
2012,04,19,03,10,0.00
2012,04,19,03,11,0.00
2012,04,19,03,12,0.00
2012,04,19,03,13,0.00
2012,04,19,03,14,0.00
2012,04,19,03,15,0.00
2012,04,19,03,16,0.00
2012,04,19,03,17,0.00
2012,04,19,03,18,0.00
2012,04,19,03,19,0.00
2012,04,19,03,20,0.00
2012,04,19,03,21,0.00
2012,04,19,03,22,0.00
2012,04,19,03,23,0.00
2012,04,19,03,24,0.00
2012,04,19,03,25,0.00
2012,04,19,03,26,0.00
2012,04,19,03,27,0.00
2012,04,19,03,28,0.00
2012,04,19,03,29,0.00
2012,04,19,03,30,0.00
2012,04,19,03,31,0.00
2012,04,19,03,32,0.00
2012,04,19,03,33,0.00
2012,04,19,03,34,0.00
2012,04,19,03,35,0.00
2012,04,19,03,36,0.00
2012,04,19,03,37,0.00
2012,04,19,03,38,0.00
2012,04,19,03,39,0.00
2012,04,19,03,40,0.00
2012,04,19,03,41,0.00
2012,04,19,03,42,0.00
2012,04,19,03,43,0.00
2012,04,19,03,44,0.00
2012,04,19,03,45,0.00
2012,04,19,03,46,0.00
2012,04,19,03,47,0.00
2012,04,19,03,48,0.00
2012,04,19,03,49,0.00
2012,04,19,03,50,0.00
2012,04,19,03,51,0.00
2012,04,19,03,52,0.00
2012,04,19,03,53,0.00
2012,04,19,03,54,0.00
2012,04,19,03,55,0.00
2012,04,19,03,56,0.00
2012,04,19,03,57,0.00
2012,04,19,03,58,0.00
2012,04,19,03,59,0.00
2012,04,19,04,00,0.00
2012,04,19,04,01,0.00
2012,04,19,04,02,0.00
2012,04,19,04,03,0.00
2012,04,19,04,04,0.00
2012,04,19,04,05,0.00
2012,04,19,04,06,0.00
2012,04,19,04,07,0.00
2012,04,19,04,08,0.00
2012,04,19,04,09,0.00
2012,04,19,04,10,0.00
2012,04,19,04,11,0.00
2012,04,19,04,12,0.00
2012,04,19,04,13,0.00
2012,04,19,04,14,0.00
2012,04,19,04,15,0.00
2012,04,19,04,16,0.00
2012,04,19,04,17,0.00
2012,04,19,04,18,0.00
2012,04,19,04,19,0.00
2012,04,19,04,20,0.00
2012,04,19,04,21,0.00
2012,04,19,04,22,0.00
2012,04,19,04,23,0.00
2012,04,19,04,24,0.00
2012,04,19,04,25,0.00
2012,04,19,04,26,0.00
2012,04,19,04,27,0.00
2012,04,19,04,28,0.00
2012,04,19,04,29,0.00
2012,04,19,04,30,0.00
2012,04,19,04,31,0.00
2012,04,19,04,32,0.00
2012,04,19,04,33,0.00
2012,04,19,04,34,0.00
2012,04,19,04,35,0.00
2012,04,19,04,36,0.00
2012,04,19,04,37,0.00
2012,04,19,04,38,0.00
2012,04,19,04,39,0.00
2012,04,19,04,40,0.00
2012,04,19,04,41,0.00
2012,04,19,04,42,0.00
2012,04,19,04,43,0.00
2012,04,19,04,44,0.00
2012,04,19,04,45,0.00
2012,04,19,04,46,0.00
2012,04,19,04,47,0.00
2012,04,19,04,48,0.00
2012,04,19,04,49,0.00
2012,04,19,04,50,0.00
2012,04,19,04,51,0.00
2012,04,19,04,52,0.00
2012,04,19,04,53,0.00
2012,04,19,04,54,0.00
2012,04,19,04,55,0.00
2012,04,19,04,56,0.00
2012,04,19,04,57,0.00
2012,04,19,04,58,0.00
2012,04,19,04,59,0.00
2012,04,19,05,00,0.00
2012,04,19,05,01,0.00
2012,04,19,05,02,0.00
2012,04,19,05,03,0.00
2012,04,19,05,04,0.00
2012,04,19,05,05,0.00
2012,04,19,05,06,0.00
2012,04,19,05,07,0.00
2012,04,19,05,08,0.00
2012,04,19,05,09,0.00
2012,04,19,05,10,0.00
2012,04,19,05,11,0.00
2012,04,19,05,12,0.00
2012,04,19,05,13,0.00
2012,04,19,05,14,0.00
2012,04,19,05,15,0.00
2012,04,19,05,16,0.00
2012,04,19,05,17,0.00
2012,04,19,05,18,0.00
2012,04,19,05,19,0.00
2012,04,19,05,20,0.00
2012,04,19,05,21,0.00
2012,04,19,05,22,0.00
2012,04,19,05,23,0.00
2012,04,19,05,24,0.00
2012,04,19,05,25,0.00
2012,04,19,05,26,0.00
2012,04,19,05,27,0.00
2012,04,19,05,28,0.00
2012,04,19,05,29,0.00
2012,04,19,05,30,0.00
2012,04,19,05,31,0.00
2012,04,19,05,32,0.00
2012,04,19,05,33,0.00
2012,04,19,05,34,0.00
2012,04,19,05,35,0.00
2012,04,19,05,36,0.00
2012,04,19,05,37,0.00
2012,04,19,05,38,0.00
2012,04,19,05,39,0.00
2012,04,19,05,40,0.00
2012,04,19,05,41,0.00
2012,04,19,05,42,0.00
2012,04,19,05,43,0.00
2012,04,19,05,44,0.00
2012,04,19,05,45,0.00
2012,04,19,05,46,0.00
2012,04,19,05,47,0.00
2012,04,19,05,48,0.00
2012,04,19,05,49,0.00
2012,04,19,05,50,0.00
2012,04,19,05,51,0.00
2012,04,19,05,52,0.00
2012,04,19,05,53,0.00
2012,04,19,05,54,0.00
2012,04,19,05,55,0.00
2012,04,19,05,56,0.00
2012,04,19,05,57,0.00
2012,04,19,05,58,0.00
2012,04,19,05,59,0.00
2012,04,19,06,00,0.00
2012,04,19,06,01,0.00
2012,04,19,06,02,0.00
2012,04,19,06,03,0.00
2012,04,19,06,04,0.00
2012,04,19,06,05,0.00
2012,04,19,06,06,0.00
2012,04,19,06,07,0.00
2012,04,19,06,08,0.00
2012,04,19,06,09,0.00
2012,04,19,06,10,0.00
2012,04,19,06,11,0.00
2012,04,19,06,12,0.00
2012,04,19,06,13,0.00
2012,04,19,06,14,0.00
2012,04,19,06,15,0.00
2012,04,19,06,16,0.00
2012,04,19,06,17,0.00
2012,04,19,06,18,0.00
2012,04,19,06,19,0.00
2012,04,19,06,20,0.00
2012,04,19,06,21,0.00
2012,04,19,06,22,0.00
2012,04,19,06,23,0.00
2012,04,19,06,24,1.60
2012,04,19,06,25,5.00
2012,04,19,06,26,5.00
2012,04,19,06,27,5.00
2012,04,19,06,28,6.80
2012,04,19,06,29,7.00
2012,04,19,06,30,7.70
2012,04,19,06,31,9.00
2012,04,19,06,32,9.00
2012,04,19,06,33,10.50
2012,04,19,06,34,11.00
2012,04,19,06,35,11.00
2012,04,19,06,36,11.00
2012,04,19,06,37,11.50
2012,04,19,06,38,12.00
2012,04,19,06,39,12.00
2012,04,19,06,40,13.90
2012,04,19,06,41,14.00
2012,04,19,06,42,14.80
2012,04,19,06,43,16.00
2012,04,19,06,44,16.00
2012,04,19,06,45,16.00
2012,04,19,06,46,18.00
2012,04,19,06,47,19.00
2012,04,19,06,48,19.80
2012,04,19,06,49,22.20
2012,04,19,06,50,23.00
2012,04,19,06,51,24.60
2012,04,19,06,52,25.10
2012,04,19,06,53,26.00
2012,04,19,06,54,25.60
2012,04,19,06,55,25.60
2012,04,19,06,56,26.00
2012,04,19,06,57,26.00
2012,04,19,06,58,26.30
2012,04,19,06,59,28.60
2012,04,19,07,00,30.00
2012,04,19,07,01,31.20
2012,04,19,07,02,32.00
2012,04,19,07,03,32.90
2012,04,19,07,04,33.30
2012,04,19,07,05,35.00
2012,04,19,07,06,35.00
2012,04,19,07,07,36.30
2012,04,19,07,08,37.00
2012,04,19,07,09,38.80
2012,04,19,07,10,40.80
2012,04,19,07,11,44.70
2012,04,19,07,12,46.50
2012,04,19,07,13,47.00
2012,04,19,07,14,48.50
2012,04,19,07,15,48.80
2012,04,19,07,16,46.80
2012,04,19,07,17,46.00
2012,04,19,07,18,45.00
2012,04,19,07,19,44.00
2012,04,19,07,20,44.00
2012,04,19,07,21,44.10
2012,04,19,07,22,46.00
2012,04,19,07,23,46.40
2012,04,19,07,24,48.10
2012,04,19,07,25,50.40
2012,04,19,07,26,52.70
2012,04,19,07,27,54.20
2012,04,19,07,28,57.10
2012,04,19,07,29,61.20
2012,04,19,07,30,64.20
2012,04,19,07,31,67.80
2012,04,19,07,32,69.80
2012,04,19,07,33,70.20
2012,04,19,07,34,72.60
2012,04,19,07,35,74.00
2012,04,19,07,36,74.00
2012,04,19,07,37,75.50
2012,04,19,07,38,76.00
2012,04,19,07,39,77.30
2012,04,19,07,40,79.00
2012,04,19,07,41,79.00
2012,04,19,07,42,79.00
2012,04,19,07,43,80.50
2012,04,19,07,44,77.40
2012,04,19,07,45,76.80
2012,04,19,07,46,76.00
2012,04,19,07,47,76.00
2012,04,19,07,48,74.80
2012,04,19,07,49,72.40
2012,04,19,07,50,70.20
2012,04,19,07,51,69.20
2012,04,19,07,52,70.70
2012,04,19,07,53,72.90
2012,04,19,07,54,75.20
2012,04,19,07,55,78.20
2012,04,19,07,56,81.10
2012,04,19,07,57,85.10
2012,04,19,07,58,91.10
2012,04,19,07,59,95.60
2012,04,19,08,00,101.90
2012,04,19,08,01,108.20
2012,04,19,08,02,119.90
2012,04,19,08,03,125.50
2012,04,19,08,04,127.40
2012,04,19,08,05,130.10
2012,04,19,08,06,133.30
2012,04,19,08,07,130.60
2012,04,19,08,08,115.80
2012,04,19,08,09,113.80
2012,04,19,08,10,112.20
2012,04,19,08,11,109.90
2012,04,19,08,12,109.00
2012,04,19,08,13,109.00
2012,04,19,08,14,111.50
2012,04,19,08,15,118.10
2012,04,19,08,16,125.90
2012,04,19,08,17,134.90
2012,04,19,08,18,144.20
2012,04,19,08,19,167.20
2012,04,19,08,20,152.40
2012,04,19,08,21,149.00
2012,04,19,08,22,150.80
2012,04,19,08,23,154.70
2012,04,19,08,24,155.30
2012,04,19,08,25,153.20
2012,04,19,08,26,150.50
2012,04,19,08,27,147.30
2012,04,19,08,28,145.10
2012,04,19,08,29,142.70
2012,04,19,08,30,141.20
2012,04,19,08,31,141.00
2012,04,19,08,32,141.20
2012,04,19,08,33,142.00
2012,04,19,08,34,142.00
2012,04,19,08,35,141.40
2012,04,19,08,36,138.00
2012,04,19,08,37,135.20
2012,04,19,08,38,135.80
2012,04,19,08,39,141.60
2012,04,19,08,40,149.70
2012,04,19,08,41,156.20
2012,04,19,08,42,162.00
2012,04,19,08,43,167.00
2012,04,19,08,44,169.50
2012,04,19,08,45,171.40
2012,04,19,08,46,175.20
2012,04,19,08,47,178.00
2012,04,19,08,48,178.80
2012,04,19,08,49,181.30
2012,04,19,08,50,185.00
2012,04,19,08,51,182.10
2012,04,19,08,52,174.10
2012,04,19,08,53,161.40
2012,04,19,08,54,150.40
2012,04,19,08,55,144.00
2012,04,19,08,56,145.00
2012,04,19,08,57,148.40
2012,04,19,08,58,150.20
2012,04,19,08,59,151.00
2012,04,19,09,00,152.80
2012,04,19,09,01,153.00
2012,04,19,09,02,155.80
2012,04,19,09,03,164.10
2012,04,19,09,04,169.40
2012,04,19,09,05,171.00
2012,04,19,09,06,172.10
2012,04,19,09,07,177.10
2012,04,19,09,08,183.90
2012,04,19,09,09,190.10
2012,04,19,09,10,207.00
2012,04,19,09,11,217.20
2012,04,19,09,12,246.60
2012,04,19,09,13,229.50
2012,04,19,09,14,226.10
2012,04,19,09,15,210.30
2012,04,19,09,16,197.40
2012,04,19,09,17,182.50
2012,04,19,09,18,171.00
2012,04,19,09,19,162.80
2012,04,19,09,20,163.10
2012,04,19,09,21,167.00
2012,04,19,09,22,173.80
2012,04,19,09,23,180.00
2012,04,19,09,24,185.80
2012,04,19,09,25,189.00
2012,04,19,09,26,191.30
2012,04,19,09,27,190.00
2012,04,19,09,28,191.40
2012,04,19,09,29,196.00
2012,04,19,09,30,200.60
2012,04,19,09,31,206.80
2012,04,19,09,32,209.00
2012,04,19,09,33,207.40
2012,04,19,09,34,203.20
2012,04,19,09,35,193.60
2012,04,19,09,36,180.20
2012,04,19,09,37,171.70
2012,04,19,09,38,171.00
2012,04,19,09,39,173.90
2012,04,19,09,40,179.50
2012,04,19,09,41,188.60
2012,04,19,09,42,197.40
2012,04,19,09,43,200.50
2012,04,19,09,44,202.90
2012,04,19,09,45,204.00
2012,04,19,09,46,202.50
2012,04,19,09,47,199.10
2012,04,19,09,48,192.00
2012,04,19,09,49,187.10
2012,04,19,09,50,184.10
2012,04,19,09,51,181.80
2012,04,19,09,52,178.80
2012,04,19,09,53,172.40
2012,04,19,09,54,167.70
2012,04,19,09,55,162.60
2012,04,19,09,56,162.50
2012,04,19,09,57,166.80
2012,04,19,09,58,171.40
2012,04,19,09,59,170.90
2012,04,19,10,00,166.60
2012,04,19,10,01,167.40
2012,04,19,10,02,177.80
2012,04,19,10,03,188.90
2012,04,19,10,04,192.80
2012,04,19,10,05,192.90
2012,04,19,10,06,192.00
2012,04,19,10,07,193.20
2012,04,19,10,08,197.10
2012,04,19,10,09,199.60
2012,04,19,10,10,201.70
2012,04,19,10,11,204.30
2012,04,19,10,12,208.00
2012,04,19,10,13,212.80
2012,04,19,10,14,218.20
2012,04,19,10,15,220.00
2012,04,19,10,16,220.00
2012,04,19,10,17,221.40
2012,04,19,10,18,236.70
2012,04,19,10,19,245.90
2012,04,19,10,20,250.60
2012,04,19,10,21,248.80
2012,04,19,10,22,242.10
2012,04,19,10,23,235.70
2012,04,19,10,24,235.60
2012,04,19,10,25,240.70
2012,04,19,10,26,243.00
2012,04,19,10,27,241.50
2012,04,19,10,28,241.20
2012,04,19,10,29,246.80
2012,04,19,10,30,252.20
2012,04,19,10,31,256.40
2012,04,19,10,32,259.20
2012,04,19,10,33,258.40
2012,04,19,10,34,251.60
2012,04,19,10,35,249.50
2012,04,19,10,36,258.50
2012,04,19,10,37,271.20
2012,04,19,10,38,284.50
2012,04,19,10,39,295.10
2012,04,19,10,40,305.80
2012,04,19,10,41,314.20
2012,04,19,10,42,319.80
2012,04,19,10,43,326.00
2012,04,19,10,44,334.70
2012,04,19,10,45,346.00
2012,04,19,10,46,359.80
2012,04,19,10,47,370.00
2012,04,19,10,48,370.40
2012,04,19,10,49,359.50
2012,04,19,10,50,347.80
2012,04,19,10,51,347.40
2012,04,19,10,52,360.30
2012,04,19,10,53,370.50
2012,04,19,10,54,369.00
2012,04,19,10,55,367.90
2012,04,19,10,56,369.70
2012,04,19,10,57,371.00
2012,04,19,10,58,361.60
2012,04,19,10,59,344.80
2012,04,19,11,00,331.00
2012,04,19,11,01,316.20
2012,04,19,11,02,294.30
2012,04,19,11,03,272.00
2012,04,19,11,04,250.60
2012,04,19,11,05,232.50
2012,04,19,11,06,212.80
2012,04,19,11,07,197.60
2012,04,19,11,08,190.90
2012,04,19,11,09,193.00
2012,04,19,11,10,200.60
2012,04,19,11,11,212.30
2012,04,19,11,12,222.20
2012,04,19,11,13,223.80
2012,04,19,11,14,227.50
2012,04,19,11,15,236.40
2012,04,19,11,16,241.00
2012,04,19,11,17,241.60
2012,04,19,11,18,242.10
2012,04,19,11,19,241.00
2012,04,19,11,20,239.50
2012,04,19,11,21,243.90
2012,04,19,11,22,252.80
2012,04,19,11,23,259.50
2012,04,19,11,24,260.00
2012,04,19,11,25,256.10
2012,04,19,11,26,252.00
2012,04,19,11,27,255.30
2012,04,19,11,28,261.90
2012,04,19,11,29,269.70
2012,04,19,11,30,269.00
2012,04,19,11,31,262.50
2012,04,19,11,32,252.00
2012,04,19,11,33,245.90
2012,04,19,11,34,242.50
2012,04,19,11,35,242.20
2012,04,19,11,36,241.20
2012,04,19,11,37,232.20
2012,04,19,11,38,225.80
2012,04,19,11,39,227.00
2012,04,19,11,40,225.20
2012,04,19,11,41,215.60
2012,04,19,11,42,206.10
2012,04,19,11,43,201.20
2012,04,19,11,44,194.10
2012,04,19,11,45,187.70
2012,04,19,11,46,182.40
2012,04,19,11,47,169.10
2012,04,19,11,48,163.00
2012,04,19,11,49,162.30
2012,04,19,11,50,156.40
2012,04,19,11,51,144.20
2012,04,19,11,52,134.60
2012,04,19,11,53,124.30
2012,04,19,11,54,113.80
2012,04,19,11,55,112.50
2012,04,19,11,56,117.50
2012,04,19,11,57,130.00
2012,04,19,11,58,150.10
2012,04,19,11,59,173.00
2012,04,19,12,00,181.00
2012,04,19,12,01,172.00
2012,04,19,12,02,156.50
2012,04,19,12,03,153.40
2012,04,19,12,04,160.20
2012,04,19,12,05,176.00
2012,04,19,12,06,189.30
2012,04,19,12,07,200.20
2012,04,19,12,08,206.70
2012,04,19,12,09,209.20
2012,04,19,12,10,217.60
2012,04,19,12,11,223.70
2012,04,19,12,12,231.60
2012,04,19,12,13,234.00
2012,04,19,12,14,235.90
2012,04,19,12,15,235.50
2012,04,19,12,16,241.20
2012,04,19,12,17,264.20
2012,04,19,12,18,280.70
2012,04,19,12,19,279.60
2012,04,19,12,20,280.30
2012,04,19,12,21,301.20
2012,04,19,12,22,324.70
2012,04,19,12,23,339.40
2012,04,19,12,24,333.20
2012,04,19,12,25,308.50
2012,04,19,12,26,273.60
2012,04,19,12,27,256.50
2012,04,19,12,28,243.30
2012,04,19,12,29,232.80
2012,04,19,12,30,238.30
2012,04,19,12,31,253.50
2012,04,19,12,32,263.70
2012,04,19,12,33,259.90
2012,04,19,12,34,252.80
2012,04,19,12,35,248.80
2012,04,19,12,36,246.40
2012,04,19,12,37,235.90
2012,04,19,12,38,209.90
2012,04,19,12,39,182.40
2012,04,19,12,40,169.50
2012,04,19,12,41,164.50
2012,04,19,12,42,160.80
2012,04,19,12,43,156.30
2012,04,19,12,44,155.20
2012,04,19,12,45,155.60
2012,04,19,12,46,152.00
2012,04,19,12,47,149.00
2012,04,19,12,48,148.20
2012,04,19,12,49,147.80
2012,04,19,12,50,145.60
2012,04,19,12,51,141.60
2012,04,19,12,52,135.90
2012,04,19,12,53,137.70
2012,04,19,12,54,141.30
2012,04,19,12,55,141.10
2012,04,19,12,56,142.80
2012,04,19,12,57,155.60
2012,04,19,12,58,180.70
2012,04,19,12,59,212.50
2012,04,19,13,00,246.60
2012,04,19,13,01,256.40
2012,04,19,13,02,250.80
2012,04,19,13,03,249.10
2012,04,19,13,04,245.70
2012,04,19,13,05,240.50
2012,04,19,13,06,230.90
2012,04,19,13,07,218.60
2012,04,19,13,08,209.80
2012,04,19,13,09,205.60
2012,04,19,13,10,204.00
2012,04,19,13,11,205.50
2012,04,19,13,12,204.00
2012,04,19,13,13,199.80
2012,04,19,13,14,200.80
2012,04,19,13,15,208.70
2012,04,19,13,16,220.60
2012,04,19,13,17,233.20
2012,04,19,13,18,245.70
2012,04,19,13,19,262.40
2012,04,19,13,20,274.50
2012,04,19,13,21,277.60
2012,04,19,13,22,271.80
2012,04,19,13,23,263.80
2012,04,19,13,24,250.90
2012,04,19,13,25,237.60
2012,04,19,13,26,230.90
2012,04,19,13,27,228.00
2012,04,19,13,28,224.50
2012,04,19,13,29,220.70
2012,04,19,13,30,214.10
2012,04,19,13,31,209.40
2012,04,19,13,32,211.80
2012,04,19,13,33,215.60
2012,04,19,13,34,222.90
2012,04,19,13,35,229.20
2012,04,19,13,36,228.10
2012,04,19,13,37,218.20
2012,04,19,13,38,214.10
2012,04,19,13,39,217.10
2012,04,19,13,40,213.40
2012,04,19,13,41,201.30
2012,04,19,13,42,192.10
2012,04,19,13,43,194.60
2012,04,19,13,44,202.20
2012,04,19,13,45,210.90
2012,04,19,13,46,215.50
2012,04,19,13,47,213.50
2012,04,19,13,48,206.60
2012,04,19,13,49,204.80
2012,04,19,13,50,210.60
2012,04,19,13,51,218.40
2012,04,19,13,52,214.80
2012,04,19,13,53,204.90
2012,04,19,13,54,194.60
2012,04,19,13,55,192.00
2012,04,19,13,56,195.10
2012,04,19,13,57,203.80
2012,04,19,13,58,209.90
2012,04,19,13,59,212.40
2012,04,19,14,00,205.40
2012,04,19,14,01,192.80
2012,04,19,14,02,178.90
2012,04,19,14,03,171.00
2012,04,19,14,04,170.50
2012,04,19,14,05,173.60
2012,04,19,14,06,170.80
2012,04,19,14,07,163.70
2012,04,19,14,08,153.70
2012,04,19,14,09,145.80
2012,04,19,14,10,142.50
2012,04,19,14,11,140.90
2012,04,19,14,12,138.00
2012,04,19,14,13,131.60
2012,04,19,14,14,123.30
2012,04,19,14,15,116.10
2012,04,19,14,16,113.20
2012,04,19,14,17,114.20
2012,04,19,14,18,117.00
2012,04,19,14,19,120.00
2012,04,19,14,20,120.50
2012,04,19,14,21,121.00
2012,04,19,14,22,120.20
2012,04,19,14,23,120.50
2012,04,19,14,24,126.80
2012,04,19,14,25,133.40
2012,04,19,14,26,135.00
2012,04,19,14,27,135.00
2012,04,19,14,28,135.00
2012,04,19,14,29,133.40
2012,04,19,14,30,129.50
2012,04,19,14,31,125.90
2012,04,19,14,32,120.10
2012,04,19,14,33,116.60
2012,04,19,14,34,114.20
2012,04,19,14,35,112.70
2012,04,19,14,36,111.90
2012,04,19,14,37,120.30
2012,04,19,14,38,138.80
2012,04,19,14,39,157.80
2012,04,19,14,40,168.40
2012,04,19,14,41,179.40
2012,04,19,14,42,185.90
2012,04,19,14,43,183.70
2012,04,19,14,44,171.80
2012,04,19,14,45,158.80
2012,04,19,14,46,149.00
2012,04,19,14,47,140.00
2012,04,19,14,48,127.90
2012,04,19,14,49,118.50
2012,04,19,14,50,112.80
2012,04,19,14,51,109.40
2012,04,19,14,52,107.20
2012,04,19,14,53,107.40
2012,04,19,14,54,110.80
2012,04,19,14,55,119.50
2012,04,19,14,56,134.60
2012,04,19,14,57,155.00
2012,04,19,14,58,195.90
2012,04,19,14,59,242.20
2012,04,19,15,00,248.20
2012,04,19,15,01,243.50
2012,04,19,15,02,238.80
2012,04,19,15,03,230.30
2012,04,19,15,04,213.90
2012,04,19,15,05,199.60
2012,04,19,15,06,187.40
2012,04,19,15,07,169.60
2012,04,19,15,08,154.50
2012,04,19,15,09,148.60
2012,04,19,15,10,145.80
2012,04,19,15,11,143.20
2012,04,19,15,12,141.00
2012,04,19,15,13,141.00
2012,04,19,15,14,144.70
2012,04,19,15,15,151.90
2012,04,19,15,16,154.70
2012,04,19,15,17,153.00
2012,04,19,15,18,153.00
2012,04,19,15,19,150.60
2012,04,19,15,20,145.30
2012,04,19,15,21,141.10
2012,04,19,15,22,134.40
2012,04,19,15,23,130.70
2012,04,19,15,24,128.90
2012,04,19,15,25,128.80
2012,04,19,15,26,124.10
2012,04,19,15,27,114.80
2012,04,19,15,28,111.70
2012,04,19,15,29,105.30
2012,04,19,15,30,100.10
2012,04,19,15,31,98.00
2012,04,19,15,32,98.00
2012,04,19,15,33,97.90
2012,04,19,15,34,96.20
2012,04,19,15,35,93.00
2012,04,19,15,36,88.00
2012,04,19,15,37,80.30
2012,04,19,15,38,80.60
2012,04,19,15,39,84.10
2012,04,19,15,40,86.50
2012,04,19,15,41,89.20
2012,04,19,15,42,94.70
2012,04,19,15,43,101.90
2012,04,19,15,44,104.00
2012,04,19,15,45,99.20
2012,04,19,15,46,93.80
2012,04,19,15,47,90.60
2012,04,19,15,48,90.00
2012,04,19,15,49,93.50
2012,04,19,15,50,103.40
2012,04,19,15,51,117.10
2012,04,19,15,52,122.50
2012,04,19,15,53,119.70
2012,04,19,15,54,116.90
2012,04,19,15,55,113.80
2012,04,19,15,56,109.60
2012,04,19,15,57,107.00
2012,04,19,15,58,108.30
2012,04,19,15,59,111.00
2012,04,19,16,00,108.60
2012,04,19,16,01,104.80
2012,04,19,16,02,102.30
2012,04,19,16,03,104.20
2012,04,19,16,04,105.60
2012,04,19,16,05,105.70
2012,04,19,16,06,100.10
2012,04,19,16,07,97.20
2012,04,19,16,08,97.00
2012,04,19,16,09,97.00
2012,04,19,16,10,97.00
2012,04,19,16,11,97.00
2012,04,19,16,12,95.70
2012,04,19,16,13,91.80
2012,04,19,16,14,87.90
2012,04,19,16,15,83.80
2012,04,19,16,16,83.00
2012,04,19,16,17,84.50
2012,04,19,16,18,90.80
2012,04,19,16,19,102.60
2012,04,19,16,20,112.90
2012,04,19,16,21,117.00
2012,04,19,16,22,120.00
2012,04,19,16,23,120.50
2012,04,19,16,24,117.60
2012,04,19,16,25,112.00
2012,04,19,16,26,104.90
2012,04,19,16,27,103.00
2012,04,19,16,28,99.20
2012,04,19,16,29,96.30
2012,04,19,16,30,91.50
2012,04,19,16,31,86.60
2012,04,19,16,32,80.20
2012,04,19,16,33,75.50
2012,04,19,16,34,74.80
2012,04,19,16,35,78.80
2012,04,19,16,36,83.20
2012,04,19,16,37,85.70
2012,04,19,16,38,83.00
2012,04,19,16,39,78.10
2012,04,19,16,40,73.30
2012,04,19,16,41,70.00
2012,04,19,16,42,69.20
2012,04,19,16,43,65.40
2012,04,19,16,44,65.60
2012,04,19,16,45,70.00
2012,04,19,16,46,73.90
2012,04,19,16,47,79.20
2012,04,19,16,48,86.20
2012,04,19,16,49,92.80
2012,04,19,16,50,95.40
2012,04,19,16,51,96.30
2012,04,19,16,52,92.60
2012,04,19,16,53,86.20
2012,04,19,16,54,84.00
2012,04,19,16,55,85.90
2012,04,19,16,56,85.60
2012,04,19,16,57,83.60
2012,04,19,16,58,81.90
2012,04,19,16,59,79.70
2012,04,19,17,00,75.10
2012,04,19,17,01,69.90
2012,04,19,17,02,66.50
2012,04,19,17,03,64.20
2012,04,19,17,04,61.30
2012,04,19,17,05,55.80
2012,04,19,17,06,51.50
2012,04,19,17,07,47.20
2012,04,19,17,08,47.00
2012,04,19,17,09,47.80
2012,04,19,17,10,50.10
2012,04,19,17,11,52.50
2012,04,19,17,12,53.80
2012,04,19,17,13,58.30
2012,04,19,17,14,59.50
2012,04,19,17,15,58.00